[[[{"header":{"parameterUnit":"kt","parameterCategory":2,"dx":1,"dy":1,"la1":30.253999710083008,"la2":30.299108505249023,"lo1":-89.0895004272461,"lo2":-89.04439544677734,"nx":28,"ny":28,"refTime":"2022-10-22T21:00:00:Z","depth":0,"parameterNumber":1,"parameterNumberName":"U-component_of_WINDS"},"data":[-8.3747,-8.3885,-8.3919,-8.4093,-8.4153,-8.4277,-8.4331,-8.4406,-8.4474,-8.4625,-8.4718,-8.4765,-8.4844,-8.4962,-8.5063,-8.5081,-8.512,-8.5148,-8.5163,-8.5015,-8.4996,-8.4978,-8.4946,-8.5157,-8.5157,-8.5309,-8.5311,-8.5312,-8.3642,-8.3703,-8.3804,-8.3924,-8.4012,-8.4008,-8.4102,-8.4175,-8.4285,-8.4369,-8.4462,-8.4597,-8.4708,-8.4778,-8.4889,-8.4954,-8.4955,-8.4981,-8.4973,-8.4985,-8.483,-8.4796,-8.4978,-8.4978,-8.4978,-8.4978,-8.4978,-8.4978,-8.3459,-8.3541,-8.3632,-8.3742,-8.3811,-8.3891,-8.3974,-8.4029,-8.4128,-8.4248,-8.4267,-8.4391,-8.4479,-8.4627,-8.4683,-8.4781,-8.4757,-8.4793,-8.4802,-8.4809,-8.4814,-8.4586,-8.4802,-8.4801,-8.4801,-8.4801,-8.48,0,-8.3333,-8.3355,-8.3453,-8.3562,-8.3643,-8.373,-8.3814,-8.3867,-8.392,-8.3999,-8.4116,-8.4187,-8.433,-8.4441,-8.4551,-8.4602,-8.4598,-8.4603,-8.4627,-8.4617,-8.4596,-8.4606,-8.4348,-8.4594,-8.4592,-8.4591,-8.459,-8.4589,-8.3147,-8.3239,-8.3348,-8.3413,-8.3466,-8.3569,-8.3637,-8.3677,-8.3747,-8.3856,-8.3925,-8.4038,-8.413,-8.431,-8.4367,-8.4473,-8.447,-8.4561,-8.4485,-8.4475,-8.4468,-8.446,-8.4469,-8.4572,-8.4574,-8.4576,-8.4578,0,-8.3039,-8.3089,-8.324,-8.3338,-8.3365,-8.3458,-8.3541,-8.3624,-8.3666,-8.3785,-8.3815,-8.3879,-8.3991,-8.4035,-8.4171,-8.419,-8.4344,-8.4342,-8.4315,-8.4315,-8.4398,-8.4388,-8.4665,-8.4703,-8.4489,-8.4491,-8.4493,0,-8.2898,-8.3015,-8.3082,-8.3166,-8.3299,-8.3334,-8.3464,-8.3512,-8.3586,-8.368,-8.3685,-8.3773,-8.3814,-8.3909,-8.3936,-8.407,-8.4096,-8.4117,-8.4122,-8.4114,-8.4111,-8.4145,-8.4133,-8.4133,-8.4132,-8.413,-8.4129,0,-8.2719,-8.2892,-8.303,-8.3077,-8.319,-8.3254,-8.3304,-8.3386,-8.345,-8.3542,-8.3584,-8.3688,-8.3743,-8.3824,-8.3857,-8.3804,-8.4023,-8.3956,-8.4043,-8.4042,-8.4083,-8.4079,-8.432,-8.4127,-8.4127,-8.4127,-8.4126,0,-8.2608,-8.2701,-8.2894,-8.2987,-8.303,-8.3122,-8.3225,-8.3313,-8.3399,-8.3422,-8.3493,-8.3498,-8.362,-8.3551,-8.3719,-8.364,-8.3695,-8.3726,-8.3733,-8.3741,-8.366,-8.3785,-8.4014,-8.4038,-8.3757,-8.3754,-8.3751,0,-8.239,-8.2597,-8.2625,-8.2808,-8.2908,-8.2905,-8.3007,-8.3082,-8.312,-8.3211,-8.3254,-8.3356,-8.3313,-8.335,-8.3429,-8.3474,-8.3578,-8.3463,-8.3589,-8.3593,-8.3563,-8.3776,-8.3796,-8.3961,-8.3713,-8.3717,-8.372,0,-8.2224,-8.2358,-8.2387,-8.2441,-8.2544,-8.2627,-8.2745,-8.2853,-8.2911,-8.2994,-8.3092,-8.3237,-8.3211,-8.3271,-8.3284,-8.3363,-8.3509,-8.3322,-8.3324,-8.3352,-8.3697,-8.3716,-8.3744,-8.3501,-8.3506,-8.3509,-8.3689,0,-8.2042,-8.215,-8.2235,-8.235,-8.2421,-8.2536,-8.2578,-8.2648,-8.2654,-8.2689,-8.2834,-8.2903,-8.301,-8.3052,-8.3057,-8.3225,-8.3201,-8.3171,-8.31,-8.3241,-8.3301,-8.3326,-8.3009,-8.3007,-8.3006,-8.3004,0,0,-8.1818,-8.1972,-8.1996,-8.2109,-8.217,-8.216,-8.228,-8.2338,-8.2453,-8.2495,-8.2458,-8.267,-8.2726,-8.2896,-8.2944,-8.2988,-8.302,-8.2967,-8.3175,-8.3194,-8.3211,-8.3275,-8.33,-8.3002,-8.3001,-8.3001,-8.3,0,-8.1758,-8.1818,-8.1935,-8.1997,-8.2087,-8.2118,-8.2147,-8.2234,-8.2261,-8.2402,-8.2389,-8.248,-8.2646,-8.2707,-8.276,-8.2951,-8.2932,-8.2981,-8.3069,-8.3158,-8.3179,-8.3198,-8.3264,-8.3288,-8.2996,-8.2997,-8.2997,0,-8.1599,-8.1664,-8.1724,-8.1861,-8.1919,-8.2021,-8.196,-8.207,-8.2146,-8.2124,-8.2262,-8.2305,-8.2389,-8.2544,-8.2615,-8.2582,-8.285,-8.2772,-8.2783,-8.2789,-8.2877,-8.2902,-8.2925,-8.2629,-8.2628,-8.2627,0,0,-8.1541,-8.164,-8.1717,-8.185,-8.1888,-8.1935,-8.1992,-8.2002,-8.2078,-8.2108,-8.216,-8.2234,-8.2331,-8.2394,-8.2487,-8.2652,-8.267,-8.2725,-8.2743,-8.2757,-8.2771,-8.2862,-8.2887,-8.2621,-8.2621,-8.2621,0,0,-8.1512,-8.1606,-8.1597,-8.1756,-8.1831,-8.1913,-8.1992,-8.1983,-8.207,-8.206,-8.2079,-8.2099,-8.2245,-8.2286,-8.2209,-8.2462,-8.2393,-8.2412,-8.2428,-8.2451,-8.2468,-8.2452,-8.2151,0,0,0,0,0,-8.1468,-8.1595,-8.1586,-8.1619,-8.1788,-8.1919,-8.194,-8.1959,-8.1911,-8.1974,-8.2017,-8.1993,-8.2249,-8.2182,-8.2213,-8.2296,-8.2551,-8.2563,-8.2575,-8.2636,-8.2659,-8.2678,0,0,0,0,0,0,-8.1481,-8.1521,-8.1583,-8.167,-8.1708,-8.1914,-8.1836,-8.1845,-8.1905,-8.1898,-8.1986,-8.1996,-8.2013,-8.2167,-8.2195,-8.2273,-8.2142,-8.2556,-8.2566,-8.2576,-8.2644,-8.2662,-8.2679,0,0,0,0,0,-8.1492,-8.1523,-8.1789,-8.1669,-8.1702,-8.1758,-8.1831,-8.1838,-8.1884,-8.1948,-8.1957,-8.1893,-8.2015,-8.204,-8.2183,-8.226,-8.2123,-8.2133,-8.2563,-8.2571,-8.2579,-8.2653,0,0,0,0,0,0,-8.1499,-8.153,-8.1796,-8.1807,-8.1621,-8.1747,-8.1767,-8.1832,-8.1931,-8.1941,-8.1856,-8.185,-8.2018,-8.2036,-8.2056,-8.2254,-8.2107,-8.2118,-8.2124,-8.2569,-8.2576,-8.2581,0,0,0,0,0,0,-8.1513,-8.1539,-8.1802,-8.1741,-8.1745,-8.1736,-8.1755,-8.1878,-8.1932,-8.1832,-8.183,-8.1852,-8.1989,-8.2035,-8.205,-8.2242,-8.2095,-8.2105,-8.2112,-8.2116,-8.2574,-8.258,0,0,0,0,0,0,-8.1525,-8.1547,-8.1738,-8.1741,-8.1744,-8.1867,-8.1846,-8.2017,-8.1881,-8.1828,-8.1869,-8.1864,-8.1988,-8.2003,-8.2046,-8.2232,-8.2239,-8.2095,-8.2102,-8.2107,-8.211,0,0,0,0,0,0,0,-8.1534,-8.1378,-8.1733,-8.1741,-8.1744,-8.1907,-8.191,-8.1913,-8.188,-8.1875,-8.187,-8.1866,-8.2038,-8.2049,-8.206,-8.2224,0,0,-8.2094,-8.2099,0,0,0,0,0,0,0,0,-8.1369,-8.1376,-8.1733,-8.1735,-8.1737,-8.1908,-8.191,-8.1913,-8.1879,-8.1875,-8.1871,-8.1868,-8.2041,-8.2049,-8.2058,0,0,0,0,0,0,0,0,0,0,0,0,0,0,0,-8.1733,-8.1735,0,-8.1908,-8.191,-8.1912,-8.1878,-8.1875,-8.1872,-8.1869,-8.2043,-8.205,-8.2058,0,0,0,0,0,0,0,0,0,0,0,0,0,0,0,0,0,0,0,0,0,0,0,0,0,0,0,0,0,0,0,0,0,0,0,0,0,0,0,0,0,0,0,0,0,0,0,0,0,0,0,0,0,0,0,0,0,0,0,0,0,0,0,0,0,0,0,0,0]}],[{"header":{"parameterUnit":"kt","parameterCategory":2,"dx":1,"dy":1,"la1":30.253999710083008,"la2":30.299108505249023,"lo1":-89.0895004272461,"lo2":-89.04439544677734,"nx":28,"ny":28,"refTime":"2022-10-22T21:00:00:Z","depth":0,"parameterNumber":2,"parameterNumberName":"V-component_of_WINDS"},"data":[7.0332,7.0568,7.0673,7.0991,7.1139,7.1377,7.1495,7.1659,7.1817,7.2111,7.23,7.243,7.263,7.288,7.3089,7.3143,7.3227,7.3233,7.3297,7.3169,7.3159,7.3149,7.3103,7.3248,7.3248,7.3417,7.3418,7.3419,7.0229,7.0378,7.0576,7.0841,7.1013,7.107,7.1285,7.1425,7.1635,7.183,7.2021,7.2289,7.2514,7.2716,7.2951,7.3065,7.3108,7.3122,7.3119,7.315,7.3016,7.2965,7.3084,7.3084,7.3084,7.3084,7.3084,7.3084,7.0073,7.0209,7.0432,7.0649,7.081,7.0987,7.1136,7.1294,7.149,7.1749,7.1836,7.2076,7.2293,7.2628,7.2766,7.2957,7.2961,7.3011,7.3025,7.3037,7.3037,7.2789,7.3,7.3,7.3,7.3001,7.3001,0,6.9993,7.0073,7.0271,7.05,7.0664,7.0852,7.1043,7.1138,7.1344,7.1497,7.1729,7.1881,7.2179,7.241,7.2653,7.279,7.2869,7.2886,7.2923,7.2888,7.2826,7.2868,7.265,7.2881,7.288,7.288,7.288,7.2879,6.985,6.9994,7.0278,7.0403,7.0534,7.0732,7.0872,7.1043,7.1185,7.1445,7.1558,7.179,7.1986,7.2338,7.2523,7.2746,7.2789,7.2866,7.2823,7.2782,7.2799,7.2791,7.2809,7.2873,7.2874,7.2875,7.2875,0,6.976,6.9933,7.0193,7.046,7.0532,7.0676,7.0906,7.105,7.1188,7.1405,7.1466,7.1684,7.1908,7.2083,7.2372,7.2457,7.27,7.2731,7.2628,7.2646,7.2738,7.2729,7.2994,7.3041,7.2883,7.2885,7.2886,0,6.9709,6.9892,7.0142,7.0284,7.0494,7.0663,7.0866,7.1007,7.1197,7.1369,7.1486,7.1645,7.1842,7.2027,7.2152,7.2381,7.2433,7.2514,7.2547,7.2508,7.2499,7.2591,7.2587,7.2605,7.2603,7.2602,7.2601,0,6.9556,6.9903,7.0133,7.0241,7.0546,7.065,7.0781,7.0996,7.1132,7.1335,7.1427,7.165,7.1775,7.1946,7.2106,7.2071,7.2387,7.2372,7.2471,7.2467,7.2537,7.2532,7.2717,7.2599,7.2599,7.2598,7.2598,0,6.9545,6.9747,7.0051,7.031,7.0395,7.0545,7.078,7.0949,7.1166,7.1256,7.1417,7.1518,7.1728,7.1702,7.1996,7.1907,7.2022,7.2118,7.2128,7.2164,7.2131,7.222,7.2373,7.2399,7.2188,7.2184,7.2181,0,6.9325,6.9679,6.9828,7.0113,7.0302,7.0425,7.0595,7.0783,7.0917,7.1098,7.1245,7.1448,7.1465,7.1554,7.1675,7.1837,7.1952,7.1825,7.2088,7.2095,7.2034,7.2175,7.2158,7.2319,7.214,7.2144,7.2147,0,6.9178,6.9547,6.9587,6.972,6.9997,7.0155,7.0348,7.0588,7.0701,7.0898,7.1069,7.1355,7.1382,7.1526,7.1632,7.1749,7.1879,7.1763,7.1771,7.1783,7.2131,7.2115,7.2141,7.1924,7.1929,7.1933,7.2114,0,6.9133,6.9332,6.9447,6.9731,6.9879,7.0066,7.0255,7.0387,7.0475,7.0613,7.0862,7.1063,7.1307,7.138,7.1467,7.1679,7.1673,7.1698,7.1691,7.1778,7.1843,7.1869,7.1578,7.1579,7.158,7.158,0,0,6.8884,6.9173,6.9331,6.9526,6.9662,6.9788,6.9973,7.0119,7.0413,7.0505,7.0501,7.0936,7.1099,7.1383,7.1425,7.1521,7.1578,7.154,7.1733,7.1749,7.1765,7.1831,7.1855,7.1582,7.1582,7.1582,7.1582,0,6.8909,6.907,6.9249,6.9409,6.9651,6.9789,6.983,7.0093,7.0191,7.0435,7.0538,7.0709,7.105,7.1213,7.1339,7.1508,7.1578,7.1567,7.1598,7.1734,7.1749,7.1763,7.183,7.185,7.1584,7.1584,7.1584,0,6.8803,6.8996,6.9101,6.9415,6.9575,6.9764,6.9802,6.9999,7.0143,7.0272,7.0513,7.065,7.0881,7.1122,7.1237,7.1238,7.1568,7.1495,7.1495,7.1514,7.1655,7.1673,7.1688,7.1479,7.1477,7.1476,0,0,6.8799,6.8984,6.9246,6.9434,6.9528,6.9735,6.9854,6.9956,7.0161,7.0242,7.0421,7.0617,7.0818,7.0946,7.1144,7.1381,7.1445,7.1474,7.1479,7.1483,7.1502,7.1643,7.1661,7.1472,7.1472,7.1472,0,0,6.8798,6.911,6.9163,6.9405,6.9596,6.9868,6.9977,7.0049,7.0247,7.0247,7.0428,7.0488,7.0717,7.0847,7.0768,7.1146,7.1133,7.1156,7.1053,7.1062,7.1068,7.1034,7.0837,0,0,0,0,0,6.8922,6.9071,6.9116,6.9185,6.9582,6.9842,6.9894,7.0048,7.0037,7.012,7.0281,7.0347,7.0842,7.0777,7.0842,7.0931,7.1417,7.1427,7.1436,7.1361,7.1368,7.1374,0,0,0,0,0,0,6.8951,6.9034,6.9113,6.9387,6.9478,6.9838,6.9855,6.9901,7.0032,7.0041,7.0313,7.0355,7.049,7.0753,7.081,7.0891,7.0818,7.1421,7.1429,7.1437,7.1363,7.1369,7.1374,0,0,0,0,0,6.8974,6.9041,6.9637,6.9387,6.9466,6.9706,6.985,6.9889,6.9994,7.0244,7.0287,7.0098,7.0488,7.0547,7.0788,7.0861,7.078,7.08,7.1427,7.1433,7.1439,7.1366,0,0,0,0,0,0,6.8991,6.9079,6.9657,6.9687,6.9342,6.9689,6.9748,6.9878,7.0191,7.0235,7.0036,7.0039,7.0489,7.0534,7.0579,7.0843,7.0748,7.077,7.0783,7.1432,7.1437,7.1441,0,0,0,0,0,0,6.9044,6.9103,6.9672,6.9607,6.9631,6.9672,6.9725,6.9951,7.0192,6.9966,6.9979,7.0034,7.0422,7.0526,7.0561,7.0908,7.0725,7.0745,7.0759,7.0767,7.1436,7.144,0,0,0,0,0,0,6.9072,6.9123,6.9601,6.9619,6.964,6.9986,6.9875,7.0273,7.0136,6.995,7.0128,7.0125,7.0412,7.0451,7.0548,7.0879,7.09,7.0725,7.0739,7.0749,7.0755,0,0,0,0,0,0,0,6.9094,6.8715,6.948,6.9629,6.9647,6.9962,6.9971,6.9979,7.0135,7.0132,7.0129,7.0126,7.061,7.0632,7.0654,7.0856,0,0,7.0723,7.0733,0,0,0,0,0,0,0,0,6.8697,6.8711,6.9481,6.9487,6.9493,6.9964,6.997,6.9977,7.0135,7.0132,7.013,7.0127,7.0616,7.0634,7.0652,0,0,0,0,0,0,0,0,0,0,0,0,0,0,0,6.9481,6.9486,0,6.9965,6.997,6.9976,7.0135,7.0132,7.013,7.0128,7.0621,7.0636,7.065,0,0,0,0,0,0,0,0,0,0,0,0,0,0,0,0,0,0,0,0,0,0,0,0,0,0,0,0,0,0,0,0,0,0,0,0,0,0,0,0,0,0,0,0,0,0,0,0,0,0,0,0,0,0,0,0,0,0,0,0,0,0,0,0,0,0,0,0,0]}]]]